Regional Weather Roundup
Issued by NWS

Home | Current Version | Previous Version | Text Only | Print | Product List | Glossary On
Versions: 1 2 3 4 5 6 7 8 9 10 11 12 13 14 15 16 17 18 19 20 21 22 23 24 25 26 27 28 29 30 31 32 33 34 35 36 37 38 39 40 41 42 43 44 45 46 47 48 49 50
000
ASHW40 PHFO 301643
RWRHI

WEATHER ROUNDUP FOR HAWAII
NATIONAL WEATHER SERVICE HONOLULU HI
600 AM HST SUN AUG 30 2015

THIS IS AN AUTOMATED REPORT THAT HAS NOT BEEN QUALITY CONTROLLED.

NOTE..."FAIR" INDICATES FEW OR NO CLOUDS BELOW 12,000 FEET WITH NO
SIGNIFICANT WEATHER AND/OR OBSTRUCTIONS TO VISIBILITY.

* - THESE SITES REPORT LIMITED FIELDS

HIZ001>004-301700-
KAUAI-NIIHAU-

CITY           SKY/WX    TMP DP  RH WIND       PRES   REMARKS
LIHUE APT      MOCLDY    80  74  82 NE14      29.91S
PORT ALLEN*    NOT AVBL
POIPU*           N/A     81 N/A N/A NE6G15      N/A
PRINCEVILLE*     N/A     75 N/A N/A MISG        N/A
KOKOLE POINT*  NOT AVBL
MOLOAA DAIRY*    N/A     79  73  83 E3G9        N/A
WAIMEA HTS*      N/A     75  72  88 NW1         N/A
PUU OPAE*        N/A     72  66  83 NE2         N/A
PUU LUA*       NOT AVBL
MAKAHA RIDGE*    N/A     72  68  88 CALM        N/A
$$

HIZ005>011-301700-
OAHU-

CITY           SKY/WX    TMP DP  RH WIND       PRES   REMARKS
HONOLULU       PTCLDY    78  72  81 N5        29.88R
KALAELOA       CLEAR     74  69  85 CALM      29.90R
KANEOHE MCB    PTCLDY    80  72  76 E8        29.87R
WHEELER FIELD  FAIR      73  69  87 NW6       29.90R
BELLOWS*         N/A    N/A N/A N/A NE17        N/A
KAHUKU*          N/A    N/A N/A N/A E6          N/A
WHEELER*       NOT AVBL
WAIANAE HARBOR NOT AVBL
DILLINGHAM*      N/A     72  70  94 MISG        N/A
KAHUKU TRN*      N/A     73  70  88 E6G14       N/A
KAWAILOA*        N/A     73  70  88 E7G13       N/A
KII*             N/A     81  73  78 E14         N/A
MAKUA RANGE*     N/A     79  66  65 E3G10       N/A
OAHU FOREST NW   N/A     70  70 100 CALM        N/A
SCHOFIELD BRK*   N/A     70  68  94 MISG        N/A
SCHOFIELD S*   NOT AVBL
WAIANAE VLY*     N/A     86  75  70 MISG        N/A  HX  95
KUAOKALA*        N/A     75  68  78 NE5G12      N/A
HONOULIUULI*   NOT AVBL
MOKUOLOE IS*     N/A    N/A N/A N/A MISG        N/A
PALEHUA*         N/A     70  66  88 NE8G14      N/A
WAIAWA PHB*    NOT AVBL
$$

HIZ012>013-301700-
MOLOKAI-

CITY           SKY/WX    TMP DP  RH WIND       PRES   REMARKS
MOLOKAI AIRPT  MOCLDY    77  72  84 NE8       29.90R
KALAUPAPA      NOT AVBL
MAKAPULAPAI*     N/A     79  73  83 E14G20      N/A
MOLOKAI 1*       N/A     81  77  89 NE1G8       N/A
PUU ALII*        N/A     64  64 100 E2G8        N/A
$$

HIZ016-301700-
KAHOOLAWE-

CITY           SKY/WX    TMP DP  RH WIND       PRES   REMARKS
KAHOOLAWE*       N/A     73 N/A N/A NE10G17     N/A
HAKIOAWA*        N/A     75  75  99 MISG      30.32R
HONOKANAIA*      N/A     78  71  80 N12         N/A
KANELOA*         N/A     75  72  88 NE10G17   29.93S
KEALIALALO*      N/A     75  73  94 NE10G20   29.89R
LUA MAKIKA*    NOT AVBL
$$

HIZ014>015-301700-
LANAI-

CITY           SKY/WX    TMP DP  RH WIND       PRES   REMARKS
LANAI CITY     FAIR      72  69  90 E8        29.94R
LANAI 1*         N/A     73  72  94 NE12G22     N/A
$$

HIZ017>028-301700-
MAUI-

CITY           SKY/WX    TMP DP  RH WIND       PRES   REMARKS
KAHULUI        PTCLDY    79  73  82 NE9       29.88S
KAPALUA-W MAUI LGT RAIN  77  73  88 NE9       29.89
HANA AIRPORT   CLOUDY    81  75  83 NE3       29.92R
HANA*            N/A     81 N/A N/A N6          N/A
HALEAKALA SUMM   N/A     50  36  57 E12         N/A
MAALAEA BAY*   NOT AVBL
HALEAKALA*     NOT AVBL
KAUPO GAP*       N/A     66  59  77 NW1G16      N/A
KULA 1*          N/A     56  39  53 E3          N/A
$$

HIZ023>026-301700-
BIG ISLAND OF HAWAII COAST AND LOWER SLOPES-

CITY           SKY/WX    TMP DP  RH WIND       PRES   REMARKS
KAILUA KONA    PTCLDY    77  71  82 NE5       29.83S
HILO           RAIN      74  74 100 SW7       29.87R FOG
HONOKAA*       NOT AVBL
KAWAIHAE MWT*    N/A     81 N/A N/A VRB6        N/A
KAWAIHAE*        N/A     81 N/A N/A NE5         N/A
SOUTH POINT*     N/A     72 N/A N/A NW1         N/A
UPOLU AIRPORT*   N/A    N/A N/A N/A NE18G24     N/A
KAMUELA*       NOT AVBL
HAKALAU*         N/A     52  48  86 W3          N/A
KALOKO-HONOKO*   N/A     73  70  88 NE5       29.82S
PALI 2*          N/A    N/A N/A N/A NE3G17      N/A
KEALAKOMO*     NOT AVBL
KAUPULEHU*       N/A     73  66  78 SE6         N/A
KAPAPALA*        N/A     62  61  95 N3          N/A
LOWER KAHUKU*    N/A     61  -4   7 VRB2        N/A
PUHE CS*         N/A     81  70  69 VRB2        N/A
PUHO CS*         N/A     73  68  83 E3          N/A
PTA KEAMUKU*     N/A     64  55  72 CALM        N/A
WAIKOLOA*        N/A     72  64  78 E3G12       N/A
$$

HIZ027>028-301700-
BIG ISLAND OF HAWAII INTERIOR AND SUMMMITS-

CITY           SKY/WX    TMP DP  RH WIND       PRES   REMARKS
BRADSHAW FIELD CLOUDY    51  46  82 SE5       30.24R
MK VISITOR CEN   N/A     52  37  58 N5          N/A
MAUNA KEA*       N/A     37  21  52 VRB9        N/A
MAUNA LOA*       N/A    N/A N/A N/A MISG        N/A
MAUNA LOA 1*   NOT AVBL
PTA KIPUKA*      N/A     54  50  87 SE3         N/A
PTA RANGE 17*    N/A     55  50  82 E5          N/A
PTA WEST*        N/A     59  52  77 SE12        N/A
NENE CABIN*      N/A     52  43  71 N5G10       N/A
AHUMOA*          N/A     56  42  60 SE7         N/A
PTA PORTABLE*  NOT AVBL
PUU MALI*        N/A     61  50  67 E8G17       N/A
$$

HIC003-301700-
NORTHWEST ISLANDS-

CITY           SKY/WX    TMP DP  RH WIND       PRES   REMARKS
MIDWAY ISLAND  MOCLDY    81  79  94 S6        29.87S
MIDWAY NOS*    NOT AVBL
FRENCH FRIGATE NOT AVBL
$$

PHZ110>124-180-301700-
BUOY REPORTS

STATION/POSITION TIME  TEMP    WIND        PRES    WAVE   SWELL
                       AIR SEA DIR/SP/G            HT/PER HT/DIR
                 (UTC) (F)     (DEG/KT/KT) (MB)    (FT/S) (FT/D)
BUOY 51001       1553   81 83  110/ 14/ 16 1012.9
BUOY 51101       1600   81 82  120/ 14/ 17 1012.0R   7/14   7/250
BUOY 51100       NOT AVBL
BUOY 51002       1600   82 83   50/ 10/ 12 1010.0R   6/11   5/120
BUOY 51003       1600   82 84  110/  4/  6 1010.8S   6/13   5/240
BUOY 51004       1513   82 83  350/ 14/ 16 1008.2S   9/11   8/ 90
BARBERS PT BUOY  NOT AVBL
WAIMEA BAY BUOY  1600      81                N/A     5/13   3/300
KAILUA BAY BUOY  1600      83                N/A     5/ 8   2/110
LANAI BUOY       NOT AVBL
BARBERS PT 2     1600      83                N/A     4/13   3/220
PAUWELA MAUI     1600      81                N/A     5/14   3/320
HILO             NOT AVBL
KANEOHE BAY BUOY 1600      82                N/A     6/ 8
HANALEI KAUAI    1600      83                N/A     5/ 8   2/320
KAHULUI HARBOR   NOT AVBL
HONOLULU HARBOR  NOT AVBL
KILO NALU        NOT AVBL
HILO HARBOR      NOT AVBL
MOKUOLOE         NOT AVBL
NAWILIWILI       NOT AVBL
WHOTS BUOY       NOT AVBL
BUOY 51028       NOT AVBL
$$

......................KEY........................................
  SKY/WX - SKY CONDITIONS/PRESENT WEATHER
  TMP    - TEMPERATURE IN FAHRENHEIT
  DWPT   - DEWPOINT IN FAHRENHEIT
  RH     - RELATIVE HUMIDITY IN PERCENT
  WIND   - DIRECTION AND SPEED /MPH FOR ISLANDS...KTS FOR BUOYS/
  PRES   - MEAN SEA LEVEL PRESSURE IN INCHES OF HG
  VSB    - VISIBILITY IN MILES
  HX     - HEAT INDEX
  WCI    - WIND CHILL INDEX
  VRB    - VARIABLE WIND DIRECTION
  N/A    - NOT AVAILABLE


USA.gov is the U.S. government's official web portal to all federal, state and local government web resources and services.